RH
44 54 66 75 77 80 81 92 95 97 90 83 86 76 62 75 60 46 62 85 73 30 17 15 16 17 18 21 26 26 24 22 23 21 22 21 21 18 17 16 16 17 20 20 20 21 20
20 19 18 25 33 37 40 45 43 47 52 53 53 53 51 50 52 64 84 61 22 17 16 17 21 28 32 32 30 30 32 33 28 24 26 36 38 27 22 19 18 17 17 17 20 22 24
18 18 16 14 14 16 19 29 41 50 52 45 40 40 47 55 70 56 31 19 17 18 21 25 25 28 26 26 29 32 35 39 40 37 34 35 36 34 30 23 19 20 20 19 20 20 22
26 22 20 16 19 34 19 14 16 18 21 27 25 17 14 18 18 18 18 18 20 23 26 31 32 35 36 37 42 41 40 41 42 44 43 52 47 37 32 23 21 22 24 24 24 26 25
17 20 18 22 20 18 16 34 28 23 26 35 54 32 29 27 21 18 21 24 30 33 34 34 40 47 49 50 49 45 44 53 43 58 58 75 53 34 25 23 22 23 22 23 23 26 26
33 24 22 21 18 21 17 24 26 36 26 31 41 58 61 50 42 32 34 38 43 51 62 61 59 64 72 78 82 71 66 57 61 97 100 77 53 44 39 33 24 21 22 23 23 28 30
52 40 43 31 28 21 21 19 18 26 39 47 64 60 57 58 42 61 69 66 84 92 100 100 100 100 100 100 100 85 64 72 100 100 100 86 67 39 36 34 31 23 21 27 29 21 23
86 76 71 62 60 47 35 32 25 21 31 55 72 78 83 83 84 85 100 100 99 100 100 100 100 100 100 100 89 86 74 100 100 98 81 68 40 29 27 28 27 28 32 37 42 27 20
78 92 100 95 95 91 65 62 54 37 29 26 59 87 95 93 99 100 100 100 100 100 100 100 100 74 68 100 100 99 93 100 94 81 72 60 44 31 26 29 30 46 48 43 38 33 24
97 47 46 86 100 100 87 51 100 93 62 38 28 42 63 39 60 67 83 100 100 100 100 91 62 92 100 100 100 100 100 78 36 32 41 38 32 25 25 29 31 48 52 54 35 31 23
86 100 100 100 100 91 84 85 81 85 100 68 55 31 34 79 36 22 19 19 35 50 58 98 100 100 59 100 100 99 77 33 29 28 29 31 28 24 25 33 39 56 79 66 48 43 32
68 71 84 100 100 100 100 96 99 93 98 100 93 57 44 39 33 28 26 23 21 25 28 30 46 62 48 54 67 36 33 28 31 29 27 27 27 24 31 40 62 83 91 71 51 55 38
67 57 54 70 100 100 83 90 100 100 100 92 76 89 69 60 42 35 29 20 19 31 40 49 26 28 44 40 46 41 24 28 30 27 29 30 34 38 51 72 84 97 98 62 60 49 32
69 72 72 67 86 97 86 62 97 97 100 100 100 97 66 50 44 40 31 24 28 36 31 61 52 24 21 23 21 31 26 31 40 35 40 45 40 46 53 68 81 93 69 59 52 33 36
93 92 88 87 92 92 96 100 99 77 81 79 86 78 66 52 47 43 35 31 35 64 55 39 35 27 29 28 30 27 34 40 65 45 42 55 75 63 83 93 96 86 75 67 41 38 38
86 99 99 100 100 100 100 100 100 95 80 74 71 58 50 45 34 34 42 43 41 90 58 53 42 27 27 35 61 61 70 98 72 52 36 52 54 75 99 100 98 94 73 49 44 41 32
100 100 100 100 100 100 100 100 100 100 89 76 61 48 37 33 43 44 42 44 51 86 91 64 51 41 44 44 71 61 57 77 65 46 38 75 59 92 91 100 88 76 71 44 38 34 32
100 100 100 100 100 100 100 100 100 95 90 76 68 53 42 49 53 51 43 61 69 100 92 73 69 56 86 88 75 64 74 74 68 52 46 60 78 100 99 95 87 72 45 38 37 34 37
83 86 100 100 100 100 100 100 98 89 77 76 61 62 66 56 52 52 47 70 88 100 70 77 78 88 90 88 94 89 86 83 64 54 96 95 100 100 100 90 78 45 36 35 34 28 24
89 76 79 100 93 100 100 100 100 90 81 71 68 70 80 67 69 62 62 81 100 95 90 94 90 96 100 100 98 85 68 52 38 53 59 100 100 100 88 86 70 36 33 35 30 26 21
64 87 100 86 100 100 100 100 91 90 86 85 75 67 73 90 82 91 97 100 100 100 91 85 92 100 74 96 96 64 49 37 34 64 100 100 100 100 82 86 43 30 34 31 25 20 17
46 72 70 91 100 100 100 100 99 94 80 89 78 66 75 77 100 100 100 100 100 100 93 91 84 76 88 93 97 68 34 36 70 100 100 97 77 76 77 48 32 33 32 26 19 16 15
61 57 72 85 99 99 100 100 100 94 97 100 100 99 75 98 100 100 100 100 100 97 93 91 98 98 100 98 79 49 38 90 100 100 100 100 87 65 31 30 31 25 22 19 15 13 11
82 65 77 86 82 80 96 100 100 100 100 100 97 100 100 100 100 100 100 100 100 100 95 96 98 100 80 79 37 46 96 100 100 99 93 88 66 39 28 28 25 23 17 13 13 10 8
100 100 82 68 66 74 82 100 100 100 100 100 100 100 100 100 100 100 100 97 83 98 90 98 92 80 70 38 40 98 100 100 93 100 87 75 36 31 31 29 24 15 13 12 10 9 7
100 100 100 100 84 88 78 95 100 100 100 100 100 100 100 99 100 100 93 96 84 100 98 94 79 81 40 42 100 100 99 87 87 82 61 34 29 32 32 25 16 14 11 9 7 8 7
100 100 100 100 100 100 100 96 100 100 100 100 100 100 97 86 86 88 78 89 100 94 85 96 56 47 69 100 85 68 100 97 95 80 38 28 33 32 22 16 13 11 10 7 8 7 7
100 100 100 100 100 100 100 96 100 100 100 100 100 92 78 71 69 66 74 87 90 91 79 49 47 72 100 93 96 99 100 87 67 32 27 32 33 22 14 12 12 8 9 8 8 7 6
100 100 100 100 100 100 100 100 100 100 100 100 99 100 78 75 70 64 99 100 77 87 70 64 84 100 70 88 100 80 85 55 33 27 34 31 20 13 12 11 9 9 9 9 8 7 5
Wind_Speed
14 20 25 27 28 29 31 31 29 29 31 28 26 27 27 25 25 24 22 22 22 16 12 12 13 13 17 16 16 18 19 19 19 17 20 21 23 22 24 27 29 29 29 28 31 34 38
12 10 6 8 13 17 17 17 19 20 22 22 23 23 25 26 25 22 20 17 9 10 10 12 12 14 16 17 18 19 20 21 22 21 23 25 28 29 30 32 33 35 34 35 36 37 40
13 13 11 11 11 10 6 9 12 12 13 15 18 20 23 22 21 18 9 9 8 10 14 15 18 19 20 20 25 26 26 26 28 26 28 30 33 36 37 38 38 36 35 36 39 41 42
13 18 19 18 12 13 15 13 10 11 7 11 11 12 11 11 9 5 4 11 13 15 16 19 18 24 26 27 28 30 31 30 31 31 32 33 36 40 41 40 37 36 36 38 41 45 45
16 15 17 16 14 13 13 9 7 10 11 13 11 11 11 15 10 5 9 12 15 16 19 22 25 27 30 31 32 33 33 36 36 35 36 37 39 40 42 42 36 38 39 42 42 45 46
11 13 15 16 11 13 16 9 9 7 12 14 16 14 17 16 10 9 13 14 15 16 18 22 29 32 33 35 38 38 37 39 43 39 35 39 41 43 45 43 41 44 45 44 43 40 43
9 10 16 15 15 9 10 14 7 7 10 12 15 19 17 13 12 16 18 19 22 24 25 27 32 36 39 40 40 42 42 43 43 36 40 42 43 47 49 51 52 49 50 48 51 53 38
13 17 14 10 9 17 18 15 18 17 10 16 18 22 21 23 29 29 32 32 32 35 41 47 48 50 45 45 46 44 43 40 40 41 43 45 48 50 53 55 51 51 49 56 59 56 49
19 21 25 21 18 19 23 23 15 11 15 20 18 20 23 27 31 33 34 38 40 42 42 46 46 49 51 50 45 44 42 42 47 50 49 51 50 52 53 54 55 52 56 62 63 60 52
25 23 22 22 24 26 25 27 30 24 15 17 22 18 22 29 33 36 39 41 42 43 48 49 49 54 51 48 43 40 43 47 48 51 51 54 56 55 59 61 60 58 62 68 70 67 59
31 27 27 27 25 31 31 30 26 31 34 25 26 24 31 33 35 36 36 40 42 44 47 51 51 49 54 47 46 50 52 52 54 55 58 57 59 59 64 61 64 66 69 75 77 78 73
35 36 33 30 31 34 33 35 35 33 34 32 38 36 38 37 38 41 45 48 47 36 41 44 51 53 54 48 50 50 52 53 59 58 56 59 59 61 63 65 68 71 77 80 79 88 83
39 36 38 38 33 39 41 39 38 33 37 42 46 42 39 44 40 48 52 53 53 42 45 46 50 50 56 55 52 54 56 58 63 59 64 65 67 70 69 70 75 79 84 86 86 96 90
44 45 45 46 41 43 46 47 47 44 45 42 41 45 51 53 57 53 56 58 49 47 45 47 51 50 52 54 52 54 60 59 65 67 71 69 70 76 73 74 79 84 90 94 102 103 100
49 47 50 50 49 48 50 49 50 53 54 57 55 55 56 57 59 57 57 55 50 49 52 51 51 53 55 57 56 56 63 66 72 73 76 74 76 82 81 81 85 88 95 104 114 110 116
56 54 55 53 50 51 51 52 53 55 58 59 61 60 57 57 59 58 57 53 53 56 56 56 59 57 58 60 66 67 66 72 76 78 79 77 81 87 89 91 94 97 102 113 114 123 125
60 59 59 59 59 57 58 57 57 58 61 62 62 62 65 62 60 56 59 55 54 59 63 58 66 63 62 65 67 70 74 76 78 80 82 84 86 89 95 97 100 102 117 117 127 123 134
62 66 66 64 64 65 65 63 64 64 63 66 64 65 67 59 59 61 59 58 57 62 64 67 70 66 69 70 72 77 83 83 83 86 88 89 93 94 100 106 108 118 122 127 127 128 130
68 71 71 71 71 73 73 71 73 71 72 66 68 63 61 60 59 63 63 59 60 62 71 69 71 68 71 75 82 84 87 86 91 93 93 93 96 97 103 110 120 125 129 129 137 126 117
74 76 77 76 75 80 75 73 72 73 71 66 64 62 62 61 63 64 63 61 64 66 73 73 71 73 75 83 88 88 93 92 97 95 95 99 103 107 113 118 131 133 130 141 132 125 117
81 82 81 78 83 79 78 76 77 74 68 66 62 64 65 63 68 66 65 66 71 71 77 74 73 81 84 85 90 92 96 101 97 95 98 104 107 111 123 123 134 138 137 130 124 118 111
89 87 87 84 79 82 83 75 77 69 70 69 68 67 65 70 72 68 70 75 78 79 83 80 81 83 85 91 92 97 106 102 98 99 102 109 114 122 121 137 137 136 131 125 117 110 102
92 92 93 91 83 80 82 77 71 72 70 69 73 71 70 72 72 72 76 82 85 85 86 84 88 88 90 93 96 107 100 100 101 105 112 115 122 130 136 135 133 128 124 118 111 103 98
90 96 97 95 94 87 83 79 76 74 71 72 74 75 75 75 77 80 82 88 89 90 87 88 92 91 94 98 111 102 100 104 105 113 119 122 132 145 138 139 130 127 118 109 104 98 93
93 89 89 95 98 93 87 79 81 76 76 74 76 76 78 80 79 84 85 84 86 88 89 92 94 95 96 109 103 98 101 107 113 117 123 131 145 141 143 136 130 120 112 105 97 88 83
93 92 94 91 88 87 92 85 81 83 77 76 76 76 79 81 79 81 83 84 84 91 90 96 96 101 108 104 97 103 113 119 121 122 128 143 139 144 137 131 119 112 106 99 86 79 72
108 102 99 93 87 95 83 78 78 82 79 82 78 78 79 78 80 81 84 83 87 90 91 94 105 104 99 96 107 115 115 118 121 134 146 141 139 139 127 118 112 110 97 89 79 71 67
110 110 103 90 94 94 86 79 76 81 78 80 78 80 80 79 83 83 86 88 90 91 98 105 107 100 97 112 112 113 117 120 133 144 145 147 144 130 117 110 106 96 86 79 73 67 61
107 111 105 95 94 90 89 80 78 77 79 79 81 77 77 81 83 87 85 89 97 98 104 103 97 103 112 113 114 123 121 137 144 144 146 137 124 116 111 104 95 84 77 72 67 63 58
Wind_Direction
266 270 270 270 271 271 271 274 276 278 277 281 282 285 287 285 288 293 298 304 310 306 301 312 318 334 343 343 344 344 342 333 328 326 333 337 340 331 331 324 315 306 301 295 287 284 280
84 66 23 298 276 273 276 287 287 284 283 283 286 286 285 285 289 293 300 306 290 298 322 331 335 332 334 336 335 329 329 331 324 317 320 323 327 332 329 324 319 316 304 299 298 296 294
59 55 46 36 51 46 4 311 300 303 306 305 298 295 291 288 289 295 293 293 319 325 334 329 324 325 325 325 324 323 320 319 320 313 313 318 323 323 327 321 314 308 302 298 296 295 291
88 82 65 61 63 60 54 47 55 37 27 21 12 356 323 322 337 342 329 341 334 331 324 324 321 322 317 314 315 316 314 319 314 309 303 313 317 322 320 319 306 297 303 301 297 291 289
90 71 81 75 67 57 42 39 22 14 14 7 348 344 358 350 13 335 330 327 329 327 328 317 313 317 313 313 313 314 310 310 313 306 300 305 311 317 317 316 301 294 295 299 297 292 285
37 58 46 60 71 62 52 53 51 11 18 1 353 359 335 339 332 316 308 304 302 302 307 314 314 309 305 306 308 311 308 307 307 301 296 306 311 310 310 308 298 297 295 294 305 307 294
323 343 356 3 21 34 38 51 26 10 335 335 343 338 334 322 294 303 304 290 296 299 295 301 308 310 310 311 303 303 307 304 305 296 301 309 311 311 308 303 301 301 300 296 311 292 297
292 299 304 320 338 346 346 349 2 12 331 325 331 333 324 311 320 316 306 302 293 297 302 305 306 305 303 305 301 300 304 299 295 303 308 310 312 311 309 303 301 304 304 309 307 305 293
296 297 303 296 307 324 329 329 316 347 359 357 341 334 328 316 308 305 302 306 308 307 314 313 313 309 309 307 296 300 294 293 309 311 308 308 309 310 310 304 303 309 307 316 311 309 304
274 278 291 302 306 308 308 317 316 306 314 325 340 318 329 335 330 328 325 319 313 309 310 307 309 307 307 303 298 292 297 311 314 312 305 305 307 312 311 305 305 307 309 312 315 315 313
277 280 287 291 291 291 297 302 298 310 302 302 313 320 320 311 315 319 325 317 308 312 312 309 305 309 315 304 296 302 307 310 308 307 308 304 306 308 313 310 307 310 309 310 312 316 319
280 290 289 289 290 289 295 301 303 304 294 294 306 307 311 317 315 321 324 324 323 313 319 322 316 307 311 303 297 304 305 306 305 305 306 313 310 309 310 310 308 307 307 312 311 311 317
277 281 285 290 290 292 298 302 296 292 296 301 300 302 305 313 315 316 318 320 319 316 312 316 323 317 309 307 303 305 309 306 306 307 310 308 309 316 315 310 308 308 309 312 312 312 313
278 282 282 283 283 287 293 293 298 299 301 300 298 303 311 312 314 315 314 320 317 315 314 306 307 316 312 310 303 296 303 306 309 312 310 310 310 313 314 310 310 308 311 310 310 314 314
281 283 285 284 286 288 290 291 295 298 300 303 306 308 308 308 311 314 314 318 313 307 308 312 309 317 306 306 303 306 302 298 304 311 310 311 308 311 314 311 307 309 311 311 312 315 314
274 278 282 286 289 290 290 293 295 296 298 301 302 305 308 310 314 314 314 312 305 297 307 305 308 312 314 300 302 306 308 304 305 308 312 313 313 311 313 309 308 311 310 313 313 313 314
273 279 282 284 285 290 290 294 295 298 302 303 306 308 309 311 314 312 315 307 301 293 300 302 307 306 305 305 303 308 312 305 306 308 312 310 310 313 310 309 309 308 311 313 314 313 312
267 274 279 282 285 289 291 294 295 298 301 302 304 306 307 309 310 312 313 303 300 296 304 304 306 302 300 301 305 307 314 308 308 310 311 310 308 310 309 310 309 310 314 315 313 312 311
269 274 277 279 284 286 288 291 295 298 299 300 302 305 305 307 308 311 312 303 298 294 307 303 305 301 298 302 306 309 312 310 311 311 309 307 306 307 307 308 309 313 314 314 314 313 310
272 273 275 279 279 282 287 291 294 296 298 298 299 301 300 305 306 310 305 299 299 298 302 302 302 302 303 305 308 310 312 312 312 308 308 307 307 304 307 306 310 315 313 314 314 312 310
274 274 275 277 278 281 285 289 293 295 294 293 296 300 300 300 303 307 302 303 301 298 304 300 301 302 306 306 308 313 313 312 310 306 306 304 304 304 307 307 311 313 314 314 313 311 308
272 274 275 276 278 281 283 289 291 292 291 291 293 297 298 301 302 300 300 299 299 301 305 301 302 306 308 307 308 310 310 309 305 305 303 305 305 306 307 311 315 314 313 313 311 309 307
269 272 275 276 277 279 282 287 287 290 288 290 292 293 298 297 299 298 296 295 301 302 305 301 305 307 306 309 308 310 311 304 305 304 305 303 308 310 314 314 314 314 313 313 311 309 308
269 270 274 275 276 278 279 281 285 286 286 287 290 293 290 295 294 293 297 299 300 300 304 303 304 305 308 307 312 308 303 305 303 304 307 307 310 312 314 314 317 314 312 311 311 310 307
268 268 270 272 275 278 279 280 282 281 282 284 287 289 289 290 294 294 295 298 300 300 303 305 304 305 304 310 309 302 303 305 305 304 306 309 313 315 316 316 315 314 312 312 310 309 305
266 268 265 269 274 273 278 278 280 283 281 284 288 289 290 291 294 295 298 299 303 301 301 301 303 303 307 311 303 305 305 305 305 306 309 314 315 316 316 315 314 312 311 310 311 307 306
263 265 268 269 269 271 272 275 278 280 282 285 288 290 290 293 294 296 299 301 300 299 302 301 303 307 310 305 305 305 304 304 303 308 314 315 316 315 314 314 314 311 312 310 310 309 307
260 262 264 266 264 266 271 275 276 278 282 285 285 286 294 294 296 300 301 299 302 302 302 304 309 308 303 304 304 303 302 305 307 314 314 316 317 314 313 314 312 311 311 311 310 310 309
255 259 263 263 262 264 266 272 273 274 280 283 288 289 293 294 296 299 298 299 300 303 305 307 305 303 306 302 301 304 304 309 313 314 315 315 313 313 313 313 310 311 312 311 311 311 310